Weather Roundup
Issued by NWS Chicago, IL

Home | Current Version | Previous Version | Text Only | Print | Product List | Glossary On
Versions: 1 2 3 4 5 6 7 8 9 10 11 12 13 14 15 16 17 18 19 20 21 22 23 24 25 26 27 28 29 30 31 32 33 34 35 36 37 38 39 40 41 42 43 44 45 46 47 48 49 50
000
NZUS59 KLOT 050621
HRRLOT

CHICAGO AREA WEATHER ROUNDUP
NATIONAL WEATHER SERVICE CHICAGO/ROMEOVILLE IL
100 AM CDT WED AUG 05 2015

NOTE: "FAIR" INDICATES FEW OR NO CLOUDS BELOW 12,000 FEET WITH NO
SIGNIFICANT WEATHER AND/OR OBSTRUCTIONS TO VISIBILITY.

* THESE STATIONS ARE NOT UNDER NWS QUALITY CONTROL. THEY ALSO MAY NOT
  REPORT WEATHER SUCH AS PRECIPITATION OR FOG.

ILZ005-006-012>014-019>023-050700-
NORTHEAST ILLINOIS

CITY           SKY/WX    TMP DP  RH WIND       PRES   REMARKS
OHARE          PTCLDY    67  58  72 SW3       30.03F
6HR MIN TEMP:  65; 6HR MAX TEMP:  77;

MIDWAY         PTCLDY    73  60  63 SE3       30.03S
6HR MIN TEMP:  72; 6HR MAX TEMP:  79;

AURORA         CLEAR     59  55  87 CALM      30.05S
6HR MIN TEMP:  59; 6HR MAX TEMP:  75;

LANSING*       CLEAR     61  58  92 CALM      30.04S
JOLIET*        CLEAR     60  58  91 CALM      30.04S
WAUKEGAN       CLEAR     63  59  87 CALM      30.03S
6HR MIN TEMP:  61; 6HR MAX TEMP:  71;

DUPAGE AIRPORT CLEAR     61  56  83 CALM      30.04S
6HR MIN TEMP:  61; 6HR MAX TEMP:  75;

WHEELING       CLEAR     64  58  80 CALM      30.05S
6HR MIN TEMP:  63; 6HR MAX TEMP:  76;

KANKAKEE*      CLEAR     61  59  91 CALM      30.05S
MORRIS*        CLEAR     62  58  88 CALM      30.03S
LEWIS AIRPORT* CLEAR     62  56  78 CALM      30.04S
NORTHERLY IS     N/A     70  59  68 S5          N/A
$$

WIZ051-052-058>065-066-070>072-050700-
SOUTHEAST WISCONSIN

CITY           SKY/WX    TMP DP  RH WIND       PRES   REMARKS
MILWAUKEE      PTCLDY    67  55  65 SW3       30.03S
6HR MIN TEMP:  65; 6HR MAX TEMP:  73;

KENOSHA*       CLEAR     60  56  86 SW3       30.03F
RACINE*        CLEAR     65  55  70 W5        30.05S
BURLINGTON     CLEAR     54  53  96 CALM      30.03F
WAUKESHA       CLEAR     57  54  88 CALM      30.05S
WEST BEND      PTCLDY    57  54  88 CALM      30.03F
$$

INZ001>003-010>013-019-020-050700-
NORTHWEST INDIANA

CITY           SKY/WX    TMP DP  RH WIND       PRES   REMARKS
GARY*          CLEAR     62  61  96 CALM      30.04F
6HR MIN TEMP:  62; 6HR MAX TEMP:  77;

MICHIGAN CITY* NOT AVBL
RENSSELAER*    NOT AVBL
VALPARAISO     CLEAR     61  57  87 CALM      30.04F
$$

LMZ740>746-050700-
SOUTHERN LAKE MICHIGAN

STATION/POSITION TIME  SKY/WX   TEMP WIND        PRES    VSBY
                                AIR  DIR/SP/G
                 (UTC)          (F)  (DEG/KT/KT) (MB)    (MI)
HARRISON CRIB    0600            71  170/  6/  7   N/A
BURNHAM HARBOR   0600            70  180/  2/  5   N/A
CALUMET HARBOR   0500            72  110/  4/  5   N/A
BURNS HARBOR     0500            70  170/  2/  5 1017.6S
MICHIGAN CITY    0600            69  140/  7/  8   N/A
$$

ABBREVIATIONS USED IN REMARKS
   TC - TEMPERATURE IN CELSIUS
  WCI - WIND CHILL INDEX
   HX - HEAT INDEX
  VSB - VISIBILITY
$$



USA.gov is the U.S. government's official web portal to all federal, state and local government web resources and services.